Location: Corte Bragagnani
(45.3000°N, 11.1000°E)
Time: 09:48:26
(UTC+00:00)

SL-16 R/B - Pass Details

Date: 09 April 2020
Orbit: 842 x 846 km, 71.0° (Epoch: 06 June)

Event Time Altitude Azimuth Distance (km) Brightness Sun altitude
Rises 23:13:54 0° 328° (NNW) 3,413 6.1 -36.7°
Reaches altitude 10° 23:16:27 10° 322° (NW) 2,474 5.1 -36.7°
Enters shadow 23:18:36 23° 311° (NW) 1,746 4.1 -36.7°
